Погода в Чжанцзяцзе

Китай     29°07′33″N   110°28′24″E
темп.,
°C
ветер,
м/с
пор.,
м/с
влажн.,
%
обл.,
%
осадки,
мм/ч
давл.,
гПа
погр.,
м
12 мая, ср
ср1223:00+19всв118459 0.0 101020
02:00+18всв119078 0.0 100911
05:00+18вюв1189100 0.0 100811
08:00+20всв1182100 0.0 1009205
11:00+24юв226856 0.0 1008984
14:00+25ююв226465 0.1 10061193
17:00+23юв1180100 0.3 100531
20:00+20в119519 0.6 100618
13 мая, чт
чт1323:00+20всв2296100 0.0 100877
02:00+20св2297100 0.0 100681
05:00+19вюв1198100 1.6 100526
08:00+19в1399100 9.1 1007151
11:00+22в1289100 0.4 1006483
14:00+23вюв2387100 0.8 1004539
17:00+21в2397100 1.0 1003235
20:00+20всв2399100 2.4 1004151
14 мая, пт
пт1423:00+20св1299100 0.3 100477
02:00+19в1299100 1.7 1002116
05:00+20юв1199100 0.5 100234
08:00+20св1198100 0.6 1003100
11:00+22ссз1093100 0.2 1003320
14:00+23сз1190100 1.2 1001255
17:00+26з128095 0.5 999610
20:00+22сз1195100 2.1 100111
15 мая, сб
сб1523:00+21сз1197100 2.6 100211
02:00+21св0099100 13.4 100120
05:00+21зсз1198100 6.6 100131
08:00+23ссз119262 7.4 1002241
11:00+27ю237587 1.0 1002936
14:00+28ю1376100 7.3 1000836
17:00+26вюв0186100 7.6 99958
20:00+23ююз119381 12.4 100012
16 мая, вс
вс1623:00+21ссз1198100 6.6 100229
02:00+21всв23100100 57.8 1001116
05:00+20в1198100 3.4 100316
08:00+21юз1097100 6.9 100582
11:00+21вюв2396100 1.8 1006285
14:00+20в2499100 7.1 1007311
17:00+18в2497100 3.0 1007316
20:00+16в2497100 5.4 1010292